Location: Rimouski
(48.4330°N, 68.5170°W)
Time: 12:02:54
(UTC-05:00)

Daily predictions for brighter satellites

Satellite Brightness Start Highest point End
(mag) Time Altitude Azimuth Time Altitude Azimuth Time Altitude Azimuth
Cosmos 1515 Rocket 4.0 16:43:49 10° N 16:48:04 40° ENE 16:52:16 10° SE
Cosmos 1151 Rocket 3.7 16:49:44 10° N 16:53:35 31° ENE 16:57:25 10° SE
In-Cosmos 22 4.3 16:49:02 10° SSW 16:54:24 82° WNW 16:59:57 10° N
COSMOS 2441 4.4 16:51:11 10° SSE 16:55:56 57° ENE 17:00:42 10° N
Cosmos 2322 3.9 16:50:49 10° SSW 16:56:30 77° WNW 17:02:15 10° NNE
Cosmos 1076 Rocket 3.8 16:52:53 10° SSW 16:57:08 73° W 17:01:26 10° N
Cosmos 1844 Rocket 2.8 16:52:16 10° NNW 16:57:59 85° WSW 17:03:38 10° SSE
Cosmos 1634 Rocket 4.1 16:52:33 10° N 16:58:38 52° ENE 17:04:38 10° SSE
CZ-2C R/B 4.2 16:54:03 10° N 16:58:48 67° WNW 17:03:32 10° SSW
SJ-12 4.2 16:55:03 10° S 16:59:11 75° WSW 17:03:21 10° NNW
Lacrosse 5 rocket 1.3 16:55:56 10° NW 16:59:34 50° NNE 17:03:22 10° ESE
MOS 1 4.4 16:54:24 10° SSE 17:00:04 90° ENE 17:05:48 10° NNW
SL-16 R/B 3.7 16:57:12 10° WSW 17:02:14 32° NW 17:07:18 10° NNE
Cosmos 1500 Rocket 4.0 17:02:23 10° SSE 17:06:25 39° E 17:10:29 10° NNE
CZ-4C R/B 4.0 17:02:04 10° NW 17:06:42 22° N 17:11:49 10° NE
Cosmos 1763 Rocket 3.5 17:03:34 10° SSW 17:08:45 70° ESE 17:13:54 10° NNE
CZ-4 R/B 2.2 17:06:21 10° S 17:10:09 53° W 17:14:00 10° NNW
Cosmos 2333 4.2 17:05:33 10° SSW 17:11:07 68° ESE 17:16:41 10° NNE
Cosmos 372 Rocket 4.2 17:06:55 10° NNW 17:11:51 46° ENE 17:16:44 10° SE
Cosmos 389 Rocket 3.9 17:08:24 10° NNW 17:11:51 43° W 17:15:14 10° SSW
Meteor 2-2 Rocket 4.2 17:07:12 10° N 17:12:52 84° ENE 17:18:30 10° SSE
Cosmos 332 Rocket 3.9 17:09:20 10° S 17:14:03 55° ESE 17:18:49 10° NNE
NOSS 0 Rocket 4.5 17:09:47 10° S 17:15:28 39° ESE 17:21:09 10° NE
Cosmos 2360 Rocket 3.0 17:11:35 10° SW 17:17:02 50° NW 17:22:32 10° NNE
Cosmos 1980 Rocket 4.5 17:16:12 10° WNW 17:18:59 14° NNW 17:21:47 10° N
Cosmos 1980 4.3 17:14:14 10° S 17:19:22 36° ESE 17:24:18 11° NE
ATLAS 3B R/B 4.2 17:14:48 10° WNW 17:20:46 26° NNW 17:26:31 10° NE
Cosmos 1328 4.1 17:17:21 10° SSE 17:21:06 43° E 17:24:51 10° NNE
Lacrosse 4 Rocket 3.1 17:20:57 10° N 17:23:20 15° NE 17:23:58 14° NE
USA 215 3.3 17:18:23 10° ESE 17:24:57 87° NNE 17:31:33 10° NW
Meteor 2-10 4.2 17:20:55 10° N 17:25:50 47° ENE 17:30:49 10° SSE
Cosmos 540 Rocket 4.0 17:21:56 10° S 17:26:41 38° ESE 17:31:05 12° NE
MONITOR-E 4.2 17:23:35 10° SSE 17:26:45 85° WSW 17:29:57 10° NNW
Cosmos 2084 3.8 17:25:00 10° SSW 17:28:36 38° SE 17:30:42 20° ENE
BREEZE-M DEB (TANK) 4.3 17:30:59 10° SSE 17:31:52 11° SE 17:32:07 11° SE
Cosmos 44 4.1 17:27:24 10° S 17:32:09 36° ESE 17:35:10 19° ENE
ALOS 3.3 17:29:21 10° ESE 17:33:05 24° ENE 17:36:51 10° N
ATLAS 5 CENTAUR R/B 3.9 17:29:58 10° NW 17:33:37 18° N 17:36:30 13° NE
Cosmos 2333 Rocket 2.3 17:28:19 10° S 17:33:47 54° ESE 17:38:53 12° NE
SJ-6B 3.4 17:31:16 10° SE 17:35:00 36° ENE 17:38:49 10° N
METEOR-M 4.3 17:32:13 10° SE 17:37:22 50° ENE 17:42:33 10° N
COSMO-SKYMED 1 2.5 17:36:58 10° NNE 17:41:19 66° ESE 17:45:37 10° S
Resurs 01 Rocket 2.5 17:40:01 18° ESE 17:42:17 26° ENE 17:46:00 10° N
Cosmos 2219 Rocket 2.1 17:37:44 10° SSW 17:43:22 79° ESE 17:48:47 11° NNE
Cosmos 1707 Rocket 4.1 17:39:23 10° N 17:43:23 34° ENE 17:47:20 10° SE
Cosmos 371 Rocket 3.2 17:39:08 10° SSW 17:43:56 77° ESE 17:48:32 11° NNE
Thor Agena Rocket 3.9 17:39:46 10° N 17:45:01 67° WNW 17:50:10 10° SSW
YAOGAN 1 4.4 17:41:52 10° SSW 17:45:50 35° W 17:49:49 10° NNW
Cosmos 2322 Rocket 4.4 17:42:28 10° W 17:46:20 18° NW 17:50:12 10° N
Cosmos 1125 Rocket 3.8 17:41:09 10° NNW 17:46:21 70° WSW 17:51:31 10° SSE
Cosmos 1703 4.1 17:43:01 10° SSE 17:46:21 28° E 17:46:22 28° E
Molniya-1 4.4 17:43:30 10° SW 17:46:39 81° NW 17:50:35 18° NE
Cosmos 2278 Rocket 2.3 17:41:14 10° NNW 17:46:57 79° WSW 17:52:37 10° SSE
Cosmos 2058 3.0 17:45:44 10° S 17:49:44 52° E 17:53:12 13° NNE
Meteor 1-27 4.2 17:44:03 10° N 17:49:53 78° ENE 17:55:44 10° SSE
Cosmos 2279 Rocket 3.9 17:43:39 10° N 17:49:54 74° E 17:56:07 10° SSE
Cosmos 1943 Rocket 4.2 17:51:43 10° NNE 17:53:12 11° NNE 17:53:12 11° NNE
Cosmos 1455 3.8 17:55:35 10° N 17:57:05 20° NNE 17:57:05 20° NNE
FREGAT/IRIS 2.7 17:59:50 53° NE 17:59:50 53° NE 18:02:36 10° N
Spot 2 Rocket 3.8 17:55:12 10° SE 17:59:54 41° ENE 18:04:36 10° N
NOAA 12 4.0 17:55:49 10° SSE 18:01:03 83° ENE 18:06:22 10° NNW
Cosmos 1626 3.8 17:57:55 10° SSE 17:59:17 19° SE 17:59:17 19° SE
Cosmos 841 Rocket 4.3 17:58:23 10° SW 18:03:32 53° WNW 18:08:42 10° NNE
Cosmos 1340 Rocket 2.8 18:00:06 10° S 18:03:57 55° E 18:05:16 36° NE
Cosmos 44 Rocket 3.3 17:58:52 10° SW 18:04:00 89° WNW 18:06:56 26° NE
CENTAUR R/B 3.1 18:00:13 10° WSW 18:06:26 59° NW 18:12:00 17° NE
Cosmos 2180 Rocket 4.4 18:03:52 10° N 18:10:04 86° E 18:16:17 10° S
SL-14 R/B 3.5 18:06:24 10° SSW 18:10:19 69° W 18:14:19 10° N
Lacrosse 5 3.0 18:07:17 10° WNW 18:11:52 33° N 18:13:44 25° NNE
DNEPR-1 R/B 4.3 18:07:24 10° SW 18:14:07 87° NW 18:17:18 27° NE
Cosmos 1726 3.8 18:10:51 10° NNW 18:14:18 35° W 18:17:45 10° SSW
Nadezhda 4 Rocket 4.1 18:08:26 10° SSE 18:14:24 49° E 18:20:27 10° NNE
COSMOS 2428 3.9 18:09:39 10° WSW 18:15:01 40° NW 18:20:24 10° NNE
Cosmos 2237 Rocket 2.1 18:09:51 10° SSW 18:15:29 86° ESE 18:19:13 22° NNE
Cosmos 2369 Rocket 3.5 18:12:57 10° N 18:16:36 22° NNE 18:16:36 22° NNE
Cosmos 1300 4.5 18:14:33 10° NNW 18:18:03 33° W 18:21:31 10° SSW
Cosmos 2151 3.6 18:16:43 10° SSW 18:20:50 54° WNW 18:24:58 10° N
SL-16 R/B 2.5 18:15:34 10° S 18:20:53 45° ESE 18:21:40 42° E
Cosmos 1900 4.2 18:18:00 10° NW 18:22:58 89° SW 18:25:42 27° SE
Timation 1 Rocket 4.5 18:18:13 10° NNW 18:24:15 75° WSW 18:30:14 10° SSE
Cosmos 2297 3.8 18:21:25 10° NNW 18:27:08 79° WSW 18:32:51 10° SSE
Cosmos 304 Rocket 3.7 18:22:52 10° S 18:27:37 63° ESE 18:28:11 58° ENE
Cosmos 1092 Rocket 4.1 18:26:38 10° SSE 18:32:40 49° E 18:35:05 33° NE
Aureole 2 Rocket 2.7 18:29:34 10° SSW 18:33:19 81° WNW 18:33:25 80° NW
Cosmos 1805 Rocket 3.6 18:32:08 10° S 18:36:36 82° W 18:38:21 37° N
BREEZE M DEB (TANK) 4.1 18:35:45 10° W 18:37:01 16° SW 18:37:01 16° SW
Orbus 7S? 4.1 18:33:48 10° NW 18:37:42 83° NE 18:40:09 41° ESE
Lacrosse 5 rocket 2.9 18:35:16 10° WNW 18:38:40 31° SW 18:40:18 22° S
CZ-4C R/B 3.8 18:51:58 10° NW 18:57:28 27° NNE 18:57:29 27° NNE
Sich 1 3.9 18:54:02 10° SSW 18:57:08 44° SSW 18:57:08 44° SSW
Lacrosse 4 Rocket 3.2 18:58:38 10° NNW 19:00:22 24° NNW 19:00:22 24° NNW
FENGYUN 3A 4.2 19:02:00 10° S 19:07:15 57° W 19:12:34 10° NNW
ALOS 3.2 19:05:48 10° S 19:10:17 46° W 19:14:48 10° NNW
Cosmos 44 4.2 19:08:24 10° WSW 19:13:22 45° NW 19:13:37 44° NW
ATLAS 3B R/B 4.0 19:08:09 10° NW 19:13:55 25° NNE 19:13:57 25° NNE
Cosmos 2333 Rocket 3.7 19:13:21 10° WSW 19:18:21 31° NW 19:20:56 22° N
Resurs 01 Rocket 2.9 19:17:34 33° SW 19:18:37 38° W 19:22:48 10° NNW
ATLAS 5 CENTAUR R/B 3.7 19:14:57 10° NNW 19:18:04 26° N 19:18:04 26° N
Cosmos 2219 Rocket 4.2 19:23:32 10° W 19:27:59 23° NW 19:30:32 17° N
Cosmos 1943 Rocket 4.3 19:33:30 10° NNW 19:34:43 16° N 19:34:43 16° N
Lacrosse 5 4.1 19:51:13 10° NW 19:52:57 20° NW 19:52:57 20° NW
CENTAUR R/B 4.2 19:53:00 10° WNW 19:58:40 27° NNW 19:59:12 27° N
Cosmos 2237 Rocket 4.2 19:55:58 10° W 20:00:18 22° NW 20:01:05 21° NNW
Cosmos 2369 Rocket 4.1 19:56:25 10° NNW 19:58:25 23° NNW 19:58:25 23° NNW
SL-16 R/B 3.8 19:59:56 10° WSW 20:03:37 31° W 20:03:37 31° W
